Home > Weather > Mountain View > Past weeks

Flag for USA Past Weather in Mountain View, California, USA — Yesterday and Last 2 Weeks

Now
74 °F

Sunny.


Feels Like: 77 °F
Forecast: 60 / 75 °F
Wind: 10 mph from North

Location: Moffett Field

Current Time: Aug 28, 2016 at 3:44:55 PM

Latest Report: Aug 28, 2016 at 2:56 PM


Visibility: 10 mi

Pressure: 30.06 "Hg

Humidity: 52%

Dew Point: 55 °F

Location of Mountain ViewLocation

Past Weather in Mountain View — Graph

°F

Mountain View Temperature Yesterday

Maximum temperature yesterday: 74 °F (at 2:56 PM)
Minimum temperature yesterday: 62 °F (at 4:56 AM)
Average temperature yesterday: 66 °F

High & Low Weather Summary for the Past Weeks

 TemperatureHumidityPressure
High80 °F (Aug 13, 2:56 PM)87% (Aug 15, 3:56 AM)30.12 "Hg (Aug 15, 3:56 AM)
Low59 °F (Aug 15, 3:56 AM)36% (Aug 13, 4:56 PM)29.80 "Hg (Aug 17, 5:56 PM)
Average66 °F71%29.95 "Hg
* Reported Aug 13 1:56 PM — Aug 28 1:56 PM, Mountain View, Weather by CustomWeather, © 2016

Note: Actual official high and low records may vary slightly from our data, if they occured in-between our weather recording intervals... More about our weather records

Advertising

Mountain View Weather History for the Previous 24 Hours

Scroll right to see more
 ConditionsComfort  
Time TempWeatherWind HumidityBarometerVisibility
1:56 PM
Sun, Aug 28
74 °FSunny.9 mph52%30.08 "Hg10 mi
12:56 PM73 °FSunny.5 mph53%30.09 "Hg10 mi
11:56 AM70 °FSunny.N/A59%30.10 "Hg10 mi
10:56 AM69 °FPartly sunny.No wind61%30.10 "Hg10 mi
9:56 AM65 °FOvercast.3 mph68%30.11 "Hg10 mi
8:56 AM63 °FOvercast.5 mph73%30.10 "Hg10 mi
7:56 AM63 °FOvercast.5 mph73%30.09 "Hg10 mi
6:56 AM62 °FOvercast.3 mph73%30.08 "Hg10 mi
5:56 AM63 °FOvercast.5 mph70%30.07 "Hg10 mi
4:56 AM63 °FOvercast.3 mph70%30.06 "Hg10 mi
3:56 AM63 °FOvercast.3 mph70%30.06 "Hg10 mi
2:56 AM64 °FOvercast.No wind73%30.06 "Hg10 mi
1:56 AM63 °FOvercast.No wind75%30.05 "Hg10 mi
12:56 AM63 °FOvercast.3 mph75%30.05 "Hg10 mi
11:56 PM
Sat, Aug 27
63 °FOvercast.No wind73%30.05 "Hg10 mi
10:56 PM62 °FClear.No wind73%30.04 "Hg10 mi
9:56 PM63 °FClear.8 mph73%30.03 "Hg10 mi
8:56 PM64 °FClear.9 mph70%30.01 "Hg10 mi
7:56 PM66 °FSunny.12 mph68%29.99 "Hg10 mi
6:56 PM68 °FSunny.14 mph63%29.98 "Hg10 mi
5:56 PM71 °FSunny.15 mph61%29.98 "Hg10 mi
4:56 PM72 °FSunny.16 mph59%29.97 "Hg10 mi
3:56 PM74 °FSunny.14 mph53%29.98 "Hg10 mi
Weather by CustomWeather, © 2016

See weather overviewHow to use our weather pages